�N����,����,�~����,�C��,���x,�C��,����,���ϕ���,�ő�u�ԕ���,�ő厞����,���˗�,�I�_���x,�n�����x,�ő啗���N��,DTYPE
"20/01/06","00:10",0.0,3.9,93.7,1023.7,322.5,0.7,1.6,320.8,0.00,3.0,7.2,"00:06:40",1
"20/01/06","00:20",0.0,3.8,93.7,1023.9,277.6,1.0,1.3,301.1,0.00,2.9,7.2,"00:12:24",1
"20/01/06","00:30",0.0,3.8,93.7,1023.9,298.7,1.2,2.0,321.1,0.00,2.9,7.2,"00:24:32",1
"20/01/06","00:40",0.0,3.7,93.7,1024.1,305.9,0.7,1.8,309.2,0.00,2.8,7.4,"00:38:58",1
"20/01/06","00:50",0.0,3.4,93.8,1023.9,309.7,1.2,2.0,319.6,0.00,2.5,7.1,"00:42:48",1
"20/01/06","01:00",0.0,3.0,93.9,1023.9,295.7,1.5,2.2,322.9,0.00,2.2,7.2,"00:58:24",1
"20/01/06","01:10",0.0,2.6,94.0,1023.7,306.6,1.8,2.2,321.9,0.00,1.8,7.0,"01:03:36",1
"20/01/06","01:20",0.0,2.2,94.1,1023.7,304.6,1.6,2.2,319.4,0.00,1.4,7.2,"01:18:32",1
"20/01/06","01:30",0.0,2.0,94.2,1023.7,320.3,2.0,2.8,321.7,0.00,1.2,7.1,"01:26:08",1
"20/01/06","01:40",0.0,1.8,94.5,1023.4,313.4,2.1,2.6,318.4,0.00,1.1,6.9,"01:35:36",1
"20/01/06","01:50",0.0,1.7,94.6,1023.2,319.1,2.2,2.8,322.3,0.00,1.0,6.9,"01:40:48",1
"20/01/06","02:00",0.0,1.7,94.8,1023.2,321.3,1.8,2.4,320.8,0.00,1.0,6.9,"01:52:00",1
"20/01/06","02:10",0.0,1.5,94.8,1023.2,291.0,1.3,2.1,327.3,0.00,0.8,6.8,"02:00:24",1
"20/01/06","02:20",0.0,1.4,95.1,1023.2,312.4,0.8,1.8,321.9,0.00,0.7,6.6,"02:12:16",1
"20/01/06","02:30",0.0,1.2,95.2,1022.7,316.8,1.8,3.3,323.6,0.00,0.6,6.7,"02:23:20",1
"20/01/06","02:40",0.0,1.0,95.4,1023.2,319.2,2.5,2.9,332.5,0.00,0.4,6.7,"02:37:44",1
"20/01/06","02:50",0.0,1.2,95.6,1023.2,297.8,1.2,2.2,310.7,0.00,0.6,6.9,"02:40:08",1
"20/01/06","03:00",0.0,1.5,95.6,1023.2,286.4,1.6,2.4,311.2,0.00,0.9,6.6,"02:56:40",1
"20/01/06","03:10",0.0,1.8,95.6,1023.0,299.9,1.7,2.2,310.7,0.00,1.2,6.7,"03:01:20",1
"20/01/06","03:20",0.0,2.0,95.7,1023.2,322.3,2.1,2.7,323.4,0.00,1.4,6.6,"03:11:44",1
"20/01/06","03:30",0.0,1.9,95.7,1023.4,318.7,2.3,2.7,320.7,0.00,1.3,6.5,"03:29:20",1
"20/01/06","03:40",0.0,1.8,95.8,1023.2,304.1,1.6,2.0,308.7,0.00,1.2,6.6,"03:38:48",1
"20/01/06","03:50",0.0,1.6,95.9,1023.0,306.9,1.6,1.9,313.1,0.00,1.1,6.6,"03:40:16",1
"20/01/06","04:00",0.0,1.3,96.0,1023.0,297.3,1.6,2.2,304.3,0.00,0.8,6.6,"03:59:20",1
"20/01/06","04:10",0.0,1.5,96.3,1022.7,318.1,2.6,4.1,316.1,0.00,1.0,6.4,"04:07:10",1
"20/01/06","04:20",0.0,1.5,96.3,1023.0,306.5,2.6,4.5,331.0,0.00,1.0,6.4,"04:12:48",1
"20/01/06","04:30",0.0,1.4,96.5,1023.0,299.8,2.2,4.8,330.8,0.00,0.9,6.5,"04:25:28",1
"20/01/06","04:40",0.0,1.4,96.5,1023.0,298.7,2.3,3.4,314.0,0.00,0.9,6.3,"04:38:48",1
"20/01/06","04:50",0.0,1.4,96.6,1022.7,314.3,2.8,3.9,312.9,0.00,1.0,6.3,"04:45:52",1
"20/01/06","05:00",0.0,1.5,96.7,1023.0,325.3,3.5,5.2,336.4,0.00,1.1,6.4,"04:51:36",1
"20/01/06","05:10",0.0,1.3,96.7,1023.4,302.3,1.1,2.1,312.0,0.00,0.9,6.4,"05:09:52",1
"20/01/06","05:20",0.0,1.0,96.9,1023.0,285.4,1.1,2.0,323.5,0.00,0.6,6.2,"05:10:08",1
"20/01/06","05:30",0.0,0.8,97.1,1022.7,311.7,2.2,2.5,310.1,0.00,0.4,6.5,"05:26:16",1
"20/01/06","05:40",0.0,0.6,97.2,1023.2,305.7,1.8,2.4,324.9,0.00,0.2,6.2,"05:34:56",1
"20/01/06","05:50",0.0,0.6,97.3,1023.0,323.4,2.5,3.7,338.3,0.00,0.3,6.3,"05:44:32",1
"20/01/06","06:00",0.0,0.4,97.3,1023.0,319.9,2.0,2.7,337.4,0.00,0.1,6.0,"05:51:20",1
"20/01/06","06:10",0.0,0.2,97.5,1022.7,319.3,1.6,3.2,323.4,0.00,-0.1,6.1,"06:09:44",1
"20/01/06","06:20",0.0,1.1,97.4,1022.7,323.8,3.6,5.2,338.1,0.00,0.8,6.1,"06:11:20",1
"20/01/06","06:30",0.0,0.9,97.5,1022.7,218.3,1.0,2.4,236.1,0.00,0.6,6.0,"06:25:20",1
"20/01/06","06:40",0.0,0.8,97.6,1022.7,305.4,0.8,1.6,334.1,0.00,0.5,6.0,"06:34:16",1
"20/01/06","06:50",0.0,0.6,97.6,1022.7,324.1,1.7,2.6,339.0,0.00,0.3,5.9,"06:44:08",1
"20/01/06","07:00",0.0,0.4,97.8,1022.5,298.7,1.6,2.4,303.3,0.00,0.1,5.9,"06:52:48",1
"20/01/06","07:10",0.0,0.3,97.9,1022.7,308.9,1.5,2.0,302.1,0.00,0.0,5.7,"07:00:22",1
"20/01/06","07:20",0.0,0.2,97.9,1023.0,313.5,1.1,2.4,319.5,0.00,-0.1,6.0,"07:13:04",1
"20/01/06","07:30",0.0,0.0,98.0,1023.0,236.5,0.6,1.0,264.3,0.00,-0.2,5.8,"07:20:40",1
"20/01/06","07:40",0.0,0.3,97.5,1023.0,252.1,1.0,1.6,269.7,0.00,0.0,6.0,"07:36:44",1
"20/01/06","07:50",0.0,-0.2,98.1,1023.2,320.3,1.6,2.8,328.9,0.00,-0.4,5.7,"07:42:26",1
"20/01/06","08:00",0.0,-0.1,97.6,1023.0,305.5,1.3,1.7,320.1,0.00,-0.4,5.8,"07:52:56",1
"20/01/06","08:10",0.0,0.1,98.3,1022.7,280.0,1.0,1.1,289.7,0.00,-0.1,5.6,"08:00:16",1
"20/01/06","08:20",0.0,0.8,97.7,1022.7,312.5,1.6,2.1,311.9,0.00,0.5,5.6,"08:17:08",1
"20/01/06","08:30",0.0,1.0,98.2,1023.2,289.4,0.5,1.2,299.4,0.00,0.8,5.6,"08:20:20",1
"20/01/06","08:40",0.0,1.5,97.6,1023.4,318.1,0.8,2.2,323.4,0.01,1.2,5.8,"08:39:52",1
"20/01/06","08:50",0.0,1.5,98.1,1023.2,310.4,1.8,2.7,316.2,0.02,1.3,5.8,"08:44:32",1
"20/01/06","09:00",0.0,2.1,97.6,1023.4,313.2,2.1,2.2,316.6,0.04,1.8,5.6,"08:51:52",1
"20/01/06","09:10",0.0,2.5,98.0,1023.4,275.4,0.6,0.8,293.7,0.05,2.3,5.7,"09:06:14",1
"20/01/06","09:20",0.0,3.2,97.2,1023.7,236.1,0.5,0.5,256.1,0.08,2.8,5.7,"09:17:24",1
"20/01/06","09:30",0.0,3.4,97.4,1023.4,236.0,0.7,0.9,248.6,0.11,3.1,5.7,"09:28:06",1
"20/01/06","09:40",0.0,4.1,97.5,1024.4,237.1,0.7,1.1,146.3,0.13,3.8,5.7,"09:34:32",1
"20/01/06","09:50",0.0,4.3,96.9,1024.9,268.5,0.8,1.2,282.6,0.15,3.9,5.8,"09:46:02",1
"20/01/06","10:00",0.0,4.5,96.8,1024.9,299.7,0.7,1.0,284.0,0.18,4.1,6.1,"09:53:02",1
"20/01/06","10:10",0.0,4.6,96.9,1025.1,144.5,0.5,1.1,106.0,0.20,4.2,6.0,"10:07:56",1
"20/01/06","10:20",0.0,4.9,96.5,1025.1,228.2,1.0,1.8,214.3,0.23,4.4,6.3,"10:12:10",1
"20/01/06","10:30",0.0,5.4,95.3,1025.3,215.9,1.1,2.0,215.4,0.25,4.7,6.7,"10:22:32",1
"20/01/06","10:40",0.0,6.0,94.9,1025.1,198.5,1.0,1.9,140.3,0.27,5.3,6.6,"10:37:04",1
"20/01/06","10:50",0.0,6.3,93.8,1025.6,205.3,1.3,2.4,180.7,0.29,5.4,6.8,"10:48:32",1
"20/01/06","11:00",0.0,6.8,92.0,1025.3,190.7,1.6,3.4,203.0,0.30,5.6,7.0,"10:53:12",1
"20/01/06","11:10",0.0,7.1,89.2,1025.1,175.2,1.1,2.4,210.3,0.34,5.5,7.4,"11:04:40",1
"20/01/06","11:20",0.0,7.4,85.8,1025.3,64.5,1.0,2.9,330.4,0.35,5.2,7.6,"11:16:08",1
"20/01/06","11:30",0.0,8.2,82.3,1025.3,281.4,0.8,1.9,264.2,0.35,5.4,7.7,"11:26:24",1
"20/01/06","11:40",0.0,8.8,77.3,1025.6,221.3,1.2,2.7,241.7,0.39,5.1,7.7,"11:38:56",1
"20/01/06","11:50",0.0,9.6,72.8,1025.6,262.9,1.1,1.9,339.0,0.43,5.0,8.2,"11:44:00",1
"20/01/06","12:00",0.0,9.0,69.1,1025.3,37.3,0.8,2.2,339.6,0.21,3.7,8.3,"11:56:48",1
"20/01/06","12:10",0.0,9.0,68.3,1024.6,0.5,1.2,2.6,327.8,0.25,3.5,8.5,"12:09:46",1
"20/01/06","12:20",0.0,9.6,68.2,1024.6,278.3,1.1,2.8,331.1,0.32,4.1,8.6,"12:10:56",1
"20/01/06","12:30",0.0,10.2,66.8,1024.4,310.4,0.8,2.4,350.9,0.43,4.3,8.8,"12:29:52",1
"20/01/06","12:40",0.0,9.8,64.2,1024.1,340.0,2.2,5.9,347.1,0.27,3.4,8.9,"12:38:10",1
"20/01/06","12:50",0.0,9.5,64.5,1024.1,317.5,2.6,5.0,346.4,0.25,3.2,9.0,"12:45:12",1
"20/01/06","13:00",0.0,9.7,64.5,1023.7,329.4,3.2,6.3,332.8,0.33,3.4,9.2,"12:53:04",1
"20/01/06","13:10",0.0,9.4,64.6,1023.2,331.4,4.1,7.2,323.1,0.25,3.1,9.3,"13:05:28",1
"20/01/06","13:20",0.0,9.6,65.3,1023.0,328.4,2.6,6.0,326.8,0.18,3.5,9.5,"13:10:56",1
"20/01/06","13:30",0.0,9.8,64.2,1022.5,330.3,2.3,5.1,335.7,0.26,3.4,9.4,"13:20:32",1
"20/01/06","13:40",0.0,9.7,63.9,1022.7,318.6,2.3,4.8,26.6,0.14,3.2,9.5,"13:36:32",1
"20/01/06","13:50",0.0,10.4,64.7,1022.0,305.3,2.0,3.7,297.3,0.33,4.1,9.6,"13:42:08",1
"20/01/06","14:00",0.0,10.5,62.4,1022.3,300.5,2.5,4.9,315.0,0.32,3.7,9.5,"13:51:12",1
"20/01/06","14:10",0.0,10.2,62.3,1022.0,263.5,1.6,3.2,279.1,0.15,3.4,9.6,"14:05:36",1
"20/01/06","14:20",0.0,9.9,64.0,1022.0,257.2,2.2,4.2,237.5,0.16,3.5,9.7,"14:12:48",1
"20/01/06","14:30",0.0,10.3,64.0,1021.8,286.4,1.7,2.9,325.3,0.17,3.8,9.7,"14:23:12",1
"20/01/06","14:40",0.0,10.4,62.8,1021.8,278.5,1.3,2.4,296.0,0.15,3.7,9.8,"14:32:32",1
"20/01/06","14:50",0.0,10.5,61.9,1021.8,284.8,1.5,2.9,319.3,0.17,3.6,9.8,"14:47:04",1
"20/01/06","15:00",0.0,10.8,61.0,1021.5,296.5,1.1,2.9,336.4,0.18,3.6,9.8,"14:52:16",1
"20/01/06","15:10",0.0,10.5,60.4,1022.3,335.5,2.2,6.7,342.8,0.12,3.2,9.7,"15:03:28",1
"20/01/06","15:20",0.0,10.4,61.2,1022.3,332.1,2.3,4.8,331.6,0.12,3.3,9.9,"15:10:08",1
"20/01/06","15:30",0.0,10.5,61.2,1022.0,324.9,2.3,4.5,335.9,0.15,3.4,10.0,"15:21:52",1
"20/01/06","15:40",0.0,10.5,60.4,1022.3,340.7,2.0,3.7,332.8,0.12,3.2,10.0,"15:34:40",1
"20/01/06","15:50",0.0,10.2,60.4,1022.5,344.0,2.2,3.6,336.9,0.09,2.9,9.8,"15:45:44",1
"20/01/06","16:00",0.0,9.9,61.0,1022.3,333.5,2.8,4.9,323.2,0.06,2.8,9.8,"15:58:54",1
"20/01/06","16:10",0.0,9.6,61.9,1022.0,341.9,2.8,5.2,331.1,0.05,2.7,9.8,"16:07:28",1
"20/01/06","16:20",0.0,9.4,62.6,1022.3,334.7,2.3,4.4,344.7,0.02,2.7,9.7,"16:12:16",1
"20/01/06","16:30",0.0,9.1,62.9,1022.3,333.4,3.0,4.9,331.9,0.01,2.5,9.8,"16:26:18",1
"20/01/06","16:40",0.0,8.9,62.2,1022.0,334.3,3.2,4.9,333.8,0.00,2.1,9.7,"16:39:12",1
"20/01/06","16:50",0.0,8.9,63.1,1021.8,333.0,2.6,4.2,332.9,0.00,2.3,9.6,"16:40:08",1
"20/01/06","17:00",0.0,8.7,64.4,1022.0,340.2,1.8,4.0,337.9,0.00,2.4,9.4,"16:55:36",1
"20/01/06","17:10",0.0,8.6,64.0,1022.0,353.2,1.8,3.3,330.6,0.00,2.2,9.5,"17:08:48",1
"20/01/06","17:20",0.0,8.5,64.2,1022.3,346.8,1.6,2.5,4.5,0.00,2.2,9.3,"17:11:04",1
"20/01/06","17:30",0.0,8.1,65.8,1022.7,330.2,2.2,3.3,341.7,0.00,2.1,9.3,"17:28:40",1
"20/01/06","17:40",0.0,8.0,66.4,1022.5,325.8,1.8,3.4,342.3,0.00,2.2,9.3,"17:31:20",1
"20/01/06","17:50",0.0,7.9,66.4,1022.3,329.5,1.6,2.5,298.1,0.00,2.1,9.2,"17:42:08",1
"20/01/06","18:00",0.0,7.8,67.3,1022.3,343.9,1.3,2.6,344.1,0.00,2.2,9.1,"17:59:28",1
"20/01/06","18:10",0.0,7.5,68.0,1022.3,334.7,1.5,3.3,324.0,0.00,2.0,9.2,"18:05:20",1
"20/01/06","18:20",0.0,7.5,68.1,1022.5,315.0,1.5,2.5,306.0,0.00,2.0,9.2,"18:13:04",1
"20/01/06","18:30",0.0,7.4,69.0,1022.7,335.4,1.6,3.1,336.2,0.00,2.1,9.1,"18:24:08",1
"20/01/06","18:40",0.0,7.0,70.2,1022.5,309.7,1.5,2.7,337.5,0.00,2.0,9.0,"18:31:52",1
"20/01/06","18:50",0.0,6.9,71.6,1022.3,324.7,1.7,2.9,327.2,0.00,2.2,9.0,"18:48:24",1
"20/01/06","19:00",0.0,6.6,72.7,1022.5,316.6,1.7,2.5,341.6,0.00,2.1,8.8,"18:50:16",1
"20/01/06","19:10",0.0,6.4,73.5,1022.0,297.3,1.2,2.7,315.4,0.00,2.1,8.6,"19:01:28",1
"20/01/06","19:20",0.0,6.2,74.1,1022.0,292.0,1.1,1.7,304.0,0.00,2.0,8.6,"19:19:20",1
"20/01/06","19:30",0.0,6.3,74.9,1021.8,308.6,1.7,2.8,329.2,0.00,2.2,8.7,"19:29:20",1
"20/01/06","19:40",0.0,6.1,75.9,1022.3,321.1,2.0,2.4,331.0,0.00,2.2,8.4,"19:30:08",1
"20/01/06","19:50",0.0,5.8,76.8,1022.3,319.4,1.7,2.2,326.9,0.00,2.1,8.5,"19:41:44",1
"20/01/06","20:00",0.0,5.4,77.9,1022.3,310.1,1.7,2.4,327.5,0.00,1.9,8.4,"19:52:12",1
"20/01/06","20:10",0.0,5.1,78.8,1022.3,309.9,1.5,2.0,317.1,0.00,1.8,8.4,"20:03:54",1
"20/01/06","20:20",0.0,4.9,79.6,1021.8,314.8,1.3,2.1,316.6,0.00,1.7,8.4,"20:14:08",1
"20/01/06","20:30",0.0,4.7,80.6,1021.8,312.0,1.5,2.1,315.5,0.00,1.7,8.3,"20:28:08",1
"20/01/06","20:40",0.0,4.3,81.6,1022.0,304.9,1.7,2.5,314.0,0.00,1.5,8.1,"20:32:00",1
"20/01/06","20:50",0.0,4.0,82.7,1021.5,306.3,1.5,2.2,327.2,0.00,1.4,8.2,"20:45:08",1
"20/01/06","21:00",0.0,4.0,83.6,1021.8,311.2,1.7,2.2,316.2,0.00,1.5,8.0,"20:52:42",1
"20/01/06","21:10",0.0,3.9,84.4,1021.3,310.9,1.5,1.9,319.3,0.00,1.6,8.1,"21:01:06",1
"20/01/06","21:20",0.0,3.9,85.1,1021.1,302.2,1.5,2.6,322.1,0.00,1.7,8.0,"21:15:52",1
"20/01/06","21:30",0.0,4.0,85.9,1021.1,305.3,1.8,2.6,310.2,0.00,1.9,8.0,"21:25:48",1
"20/01/06","21:40",0.0,4.0,86.5,1021.3,298.8,2.0,2.8,314.9,0.00,2.0,7.9,"21:30:42",1
"20/01/06","21:50",0.0,4.2,87.1,1020.8,311.4,2.5,3.6,325.4,0.00,2.3,8.0,"21:42:48",1
"20/01/06","22:00",0.0,4.0,87.4,1021.1,291.6,1.2,1.8,324.8,0.00,2.1,7.7,"21:50:08",1
"20/01/06","22:10",0.0,3.8,87.8,1021.5,289.4,1.6,2.2,290.4,0.00,2.0,7.7,"22:08:02",1
"20/01/06","22:20",0.0,3.9,88.3,1021.3,315.8,2.1,3.1,335.9,0.00,2.2,7.7,"22:12:00",1
"20/01/06","22:30",0.0,3.7,88.6,1021.3,295.0,1.5,2.4,320.8,0.00,2.0,7.7,"22:20:08",1
"20/01/06","22:40",0.0,3.8,88.9,1021.1,324.1,1.6,2.2,334.4,0.00,2.2,7.5,"22:38:40",1
"20/01/06","22:50",0.0,3.9,89.0,1021.5,326.4,2.1,4.1,338.3,0.00,2.3,7.4,"22:48:58",1
"20/01/06","23:00",0.0,4.0,89.2,1021.1,329.1,2.5,3.6,337.5,0.00,2.4,7.6,"22:51:28",1
"20/01/06","23:10",0.0,4.2,89.4,1021.1,324.8,3.2,5.2,332.0,0.00,2.7,7.4,"23:03:44",1
"20/01/06","23:20",0.0,4.4,89.2,1021.3,322.4,3.4,4.0,322.7,0.00,2.8,7.6,"23:13:52",1
"20/01/06","23:30",0.0,4.4,89.1,1021.1,323.3,2.6,4.4,327.5,0.00,2.8,7.3,"23:21:52",1
"20/01/06","23:40",0.0,4.3,89.1,1020.8,301.9,1.3,2.6,299.9,0.00,2.7,7.3,"23:36:08",1
"20/01/06","23:50",0.0,4.3,89.1,1020.8,289.4,1.6,1.9,281.2,0.00,2.7,7.4,"23:40:24",1
"20/01/06","24:00",0.0,4.4,89.1,1020.6,311.7,2.1,3.6,333.5,0.00,2.8,7.3,"23:59:36",1
